Time,TemperatureF,DewpointF,PressureIn,WindDirection,WindDirectionDegrees,WindSpeedMPH,WindSpeedGustMPH,Humidity,HourlyPrecipIn,Conditions,Clouds,dailyrainin,SoftwareType,DateUTC
2014-12-25 00:12:00,52.0,46.0,30.01,WNW,302,5.0,10.0,80,0.00,,,0.99,,2014-12-25 06:12:00,
2014-12-25 00:22:00,51.0,45.0,30.03,NW,315,5.0,10.0,81,0.00,,,0.99,,2014-12-25 06:22:00,
2014-12-25 00:42:00,51.0,46.0,30.04,NW,311,3.0,14.0,82,0.00,,,0.98,,2014-12-25 06:42:00,
2014-12-25 00:52:00,50.0,44.0,30.03,NW,311,6.0,13.0,81,0.00,,,0.98,,2014-12-25 06:52:00,
2014-12-25 01:11:00,50.0,44.0,30.05,NW,311,5.0,15.0,80,0.00,,,0.98,,2014-12-25 07:11:00,
2014-12-25 01:23:00,49.0,43.0,30.05,NW,316,5.0,11.0,79,0.00,,,0.98,,2014-12-25 07:23:00,
2014-12-25 01:42:00,49.0,43.0,30.05,NW,319,3.0,7.0,79,0.00,,,0.79,,2014-12-25 07:42:00,
2014-12-25 01:52:00,48.0,42.0,30.06,NW,309,2.0,8.0,80,0.00,,,0.79,,2014-12-25 07:52:00,
2014-12-25 02:12:00,48.0,42.0,30.07,NW,319,2.0,11.0,80,0.00,,,0.79,,2014-12-25 08:12:00,
2014-12-25 02:22:00,47.0,41.0,30.07,NNW,329,3.0,9.0,80,0.00,,,0.79,,2014-12-25 08:22:00,
2014-12-25 02:52:00,47.0,41.0,30.08,NNW,346,1.0,12.0,80,0.00,,,0.64,,2014-12-25 08:52:00,
2014-12-25 03:22:00,46.0,41.0,30.11,NNW,327,5.0,12.0,81,0.00,,,0.64,,2014-12-25 09:22:00,
2014-12-25 03:53:00,45.0,39.0,30.11,NW,314,6.0,13.0,80,0.00,,,0.32,,2014-12-25 09:53:00,
2014-12-25 04:23:00,45.0,39.0,30.13,NNW,333,5.0,10.0,80,0.00,,,0.32,,2014-12-25 10:23:00,
2014-12-25 04:43:00,45.0,40.0,30.13,NW,307,2.0,7.0,81,0.00,,,0.21,,2014-12-25 10:43:00,
2014-12-25 04:53:00,44.0,39.0,30.13,NNW,329,0.0,7.0,82,0.00,,,0.21,,2014-12-25 10:53:00,
2014-12-25 05:22:00,43.0,38.0,30.15,NW,311,0.0,6.0,84,0.00,,,0.21,,2014-12-25 11:22:00,
2014-12-25 05:42:00,43.0,38.0,30.15,NW,317,1.0,7.0,84,0.00,,,0.03,,2014-12-25 11:42:00,
2014-12-25 05:52:00,43.0,39.0,30.16,NW,317,1.0,6.0,85,0.00,,,0.03,,2014-12-25 11:52:00,
2014-12-25 06:12:00,43.0,39.0,30.17,NW,313,1.0,7.0,85,0.00,,,0.03,,2014-12-25 12:12:00,
2014-12-25 06:22:00,42.0,38.0,30.18,NW,313,1.0,8.0,85,0.00,,,0.03,,2014-12-25 12:22:00,
2014-12-25 06:43:00,42.0,38.0,30.19,NW,313,0.0,6.0,85,0.00,,,0.01,,2014-12-25 12:43:00,
2014-12-25 06:52:00,42.0,38.0,30.19,NW,313,3.0,6.0,86,0.00,,,0.01,,2014-12-25 12:52:00,
2014-12-25 07:12:00,42.0,38.0,30.20,NW,314,0.0,5.0,86,0.00,,,0.01,,2014-12-25 13:12:00,
2014-12-25 07:22:00,42.0,38.0,30.20,NW,311,0.0,5.0,87,0.00,,,0.01,,2014-12-25 13:22:00,
2014-12-25 07:42:00,42.0,38.0,30.21,NW,324,1.0,5.0,86,0.00,,,0.01,,2014-12-25 13:42:00,
2014-12-25 07:52:00,42.0,38.0,30.21,NNW,337,4.0,8.0,86,0.00,,,0.01,,2014-12-25 13:52:00,
2014-12-25 08:12:00,43.0,39.0,30.22,NNW,337,1.0,4.0,86,0.00,,,0.01,,2014-12-25 14:12:00,
2014-12-25 08:22:00,43.0,39.0,30.22,NNW,336,1.0,7.0,86,0.00,,,0.01,,2014-12-25 14:22:00,
2014-12-25 08:42:00,44.0,39.0,30.23,NNW,329,2.0,8.0,84,0.00,,,0.00,,2014-12-25 14:42:00,
2014-12-25 08:52:00,45.0,40.0,30.24,NW,319,3.0,9.0,83,0.00,,,0.00,,2014-12-25 14:52:00,
2014-12-25 09:12:00,46.0,41.0,30.25,NNW,332,1.0,6.0,81,0.00,,,0.00,,2014-12-25 15:12:00,
2014-12-25 09:22:00,47.0,41.0,30.26,NW,321,5.0,9.0,79,0.00,,,0.00,,2014-12-25 15:22:00,
2014-12-25 09:44:00,48.0,41.0,30.26,North,355,2.0,9.0,77,0.00,,,0.00,,2014-12-25 15:44:00,
2014-12-25 09:53:00,49.0,41.0,30.27,NNW,336,2.0,8.0,73,0.00,,,0.00,,2014-12-25 15:53:00,
2014-12-25 10:13:00,50.0,41.0,30.27,NNW,330,4.0,8.0,71,0.00,,,0.00,,2014-12-25 16:13:00,
2014-12-25 10:23:00,50.0,41.0,30.27,NW,320,2.0,9.0,70,0.00,,,0.00,,2014-12-25 16:23:00,
2014-12-25 10:53:00,51.0,40.0,30.27,NNW,344,2.0,8.0,67,0.00,,,0.00,,2014-12-25 16:53:00,
2014-12-25 11:23:00,52.0,39.0,30.25,NNW,335,4.0,9.0,62,0.00,,,0.00,,2014-12-25 17:23:00,
2014-12-25 11:43:00,52.0,39.0,30.24,NW,310,3.0,8.0,62,0.00,,,0.00,,2014-12-25 17:43:00,
2014-12-25 11:52:00,52.0,39.0,30.23,NNW,329,2.0,8.0,60,0.00,,,0.00,,2014-12-25 17:52:00,
2014-12-25 12:22:00,53.0,40.0,30.21,NNW,329,1.0,5.0,61,0.00,,,0.00,,2014-12-25 18:22:00,
2014-12-25 12:42:00,54.0,40.0,30.20,NNW,329,0.0,1.0,58,0.00,,,0.00,,2014-12-25 18:42:00,
2014-12-25 12:52:00,54.0,40.0,30.19,NNW,329,0.0,4.0,59,0.00,,,0.00,,2014-12-25 18:52:00,
2014-12-25 13:12:00,53.0,40.0,30.18,SE,136,6.0,8.0,62,0.00,,,0.00,,2014-12-25 19:12:00,
2014-12-25 13:22:00,53.0,40.0,30.18,SE,137,5.0,7.0,62,0.00,,,0.00,,2014-12-25 19:22:00,
2014-12-25 13:42:00,53.0,41.0,30.17,SE,124,6.0,8.0,63,0.00,,,0.00,,2014-12-25 19:42:00,
2014-12-25 13:52:00,53.0,41.0,30.18,ESE,123,4.0,8.0,63,0.00,,,0.00,,2014-12-25 19:52:00,
2014-12-25 14:23:00,54.0,41.0,30.19,SE,135,4.0,8.0,62,0.00,,,0.00,,2014-12-25 20:23:00,
2014-12-25 14:42:00,54.0,42.0,30.19,South,171,5.0,8.0,63,0.00,,,0.00,,2014-12-25 20:42:00,
2014-12-25 14:53:00,54.0,42.0,30.19,South,171,4.0,7.0,64,0.00,,,0.00,,2014-12-25 20:53:00,
2014-12-25 15:22:00,55.0,43.0,30.20,SW,215,5.0,10.0,63,0.00,,,0.00,,2014-12-25 21:22:00,
2014-12-25 15:33:00,55.0,43.0,30.20,SW,215,5.0,10.0,63,0.00,,,0.00,,2014-12-25 21:33:00,
2014-12-25 15:44:00,55.0,43.0,30.20,SW,215,5.0,10.0,63,0.00,,,0.00,,2014-12-25 21:44:00,
2014-12-25 15:52:00,55.0,43.0,30.20,SW,215,5.0,10.0,63,0.00,,,0.00,,2014-12-25 21:52:00,
2014-12-25 17:22:00,54.0,44.0,30.22,SSW,202,0.0,6.0,69,0.00,,,0.00,,2014-12-25 23:22:00,
2014-12-25 17:42:00,54.0,44.0,30.22,SSW,202,0.0,0.0,70,0.00,,,0.00,,2014-12-25 23:42:00,
2014-12-25 17:52:00,54.0,45.0,30.22,SSW,202,0.0,0.0,71,0.00,,,0.00,,2014-12-25 23:52:00,
2014-12-25 18:12:00,54.0,45.0,30.22,SSW,202,0.0,0.0,71,0.00,,,0.00,,2014-12-26 00:12:00,
2014-12-25 18:22:00,53.0,44.0,30.22,SSW,202,0.0,0.0,72,0.00,,,0.00,,2014-12-26 00:22:00,
2014-12-25 18:42:00,52.0,44.0,30.22,SSW,202,0.0,0.0,73,0.00,,,0.00,,2014-12-26 00:42:00,
2014-12-25 18:52:00,51.0,43.0,30.22,SSW,202,0.0,0.0,75,0.00,,,0.00,,2014-12-26 00:52:00,